Weather in Shirokundysh

Russia / Mari El Republic     56°44′21″N   46°54′57″E
temp.,
°C
wind,
m/s
gust,
m/s
humid.,
%
clouds,
%
prec.,
mm/h
press.,
hPa
HPBL,
m
19 september, sun
sun1900:00+1nw238317 0.0 102569
03:00+1nnw24795 0.0 102574
06:00−1nnw26911 0.0 1026118
09:00+5nnw246276 0.0 1026653
12:00+9nw3449100 0.0 10261294
15:00+10nnw3446100 0.0 10251448
18:00+5n226541 0.0 102619
21:00+2ne310757 0.0 1027285
20 september, mon
mon2000:000ne2785100 0.0 1028167
03:00−1ene2689100 0.0 1029123
06:00−1ene2783100 0.0 1028179
09:00+5e3555100 0.0 1029755
12:00+8e3444100 0.0 10281174
15:00+9e4542100 0.0 10271155
18:00+5ene2661100 0.0 1027127
21:00+3e2868100 0.0 1028185
21 september, tue
tue2100:00+3e3970100 0.0 1028237
03:00+2e31073100 0.0 1027267
06:00+2e31175100 0.0 1027319
09:00+6ese4959100 0.0 1026517
12:00+9ese5749100 0.0 1025880
15:00+10ese464483 0.0 10241013
18:00+7e395793 0.0 1023302
21:00+7e4116277 0.0 1023466
22 september, wed
wed2200:00+4e3117487 0.0 1023296
03:00+5e41270100 0.0 1022363
06:00+6e41265100 0.0 1021417
09:00+8e5115627 0.0 1022503
12:00+13e694891 0.0 1021795
15:00+13e5105167 0.0 1021887
18:00+10e4116098 0.0 1022470
21:00+9e41263100 0.0 1022459
23 september, thu
thu2300:00+8e4116882 0.0 1022461
03:00+8e41193100 0.8 1021500
06:00+9ese41096100 0.4 1021481
09:00+10ese41190100 0.4 1021543
12:00+13se497471 0.0 1021660
15:00+14se5963100 0.0 1020958
18:00+11sse51195100 2.6 1021670
21:00+11sse51195100 3.0 1021782